GW4779 Weather Reports


time (UTC)temp
C
wind
direction
speed
KPH
gust
KPH
rain 1hr
cm
rain 24hr
cm
rain mn
cm
humidity
%
barometer
mb
20260906182521 35 178 3.2 8.0 0.00 0.00 0.00 49 1013.2
20260906181518 35 155 3.2 6.4 0.00 0.00 0.00 50 1013.3
20260906180515 35 209 4.8 11.3 0.00 0.00 0.00 52 1013.5
20260906175532 33 286 1.6 4.8 0.00 0.00 0.00 55 1013.9
20260906174529 33 171 3.2 8.0 0.00 0.00 0.00 56 1014.1
20260906173526 33 205 1.6 4.8 0.00 0.00 0.00 55 1014.1
20260906172523 33 265 3.2 6.4 0.00 0.00 0.00 55 1014.2
20260906171540 33 208 3.2 4.8 0.00 0.00 0.00 57 1014.4
20260906170517 32 212 3.2 4.8 0.00 0.00 0.00 58 1014.6
20260906165533 33 231 3.2 6.4 0.00 0.00 0.00 58 1014.7
20260906164530 33 171 4.8 6.4 0.00 0.00 0.00 57 1014.7
20260906163527 32 181 3.2 8.0 0.00 0.00 0.00 58 1014.8
20260906162524 32 198 3.2 8.0 0.00 0.00 0.00 61 1014.8
20260906161521 32 176 4.8 8.0 0.00 0.00 0.00 60 1014.8
20260906160558 32 179 3.2 6.4 0.00 0.00 0.00 59 1014.8
20260906155535 32 190 1.6 6.4 0.00 0.00 0.00 59 1014.7
20260906154531 32 58 0.0 3.2 0.00 0.00 0.00 59 1014.6
20260906153528 31 167 3.2 6.4 0.00 0.00 0.00 62 1014.3
20260906152525 31 182 3.2 8.0 0.00 0.00 0.00 63 1014.4
20260906151522 30 115 1.6 3.2 0.00 0.00 0.00 67 1014.2
20260906150519 30 31 3.2 6.4 0.00 0.00 0.00 68 1014.2
20260906145516 30 31 3.2 6.4 0.00 0.00 0.00 70 1014.3
20260906144533 29 231 1.6 4.8 0.00 0.00 0.00 71 1014.5
20260906143530 28 348 1.6 4.8 0.00 0.00 0.00 73 1014.4
20260906142527 28 28 3.2 6.4 0.00 0.00 0.00 76 1014.4
20260906141604 27 323 1.6 3.2 0.00 0.00 0.00 78 1014.6
20260906140521 27 243 0.0 3.2 0.00 0.00 0.00 80 1014.6
20260906135517 26 13 1.6 4.8 0.00 0.00 0.00 83 1014.5
20260906134535 25 50 1.6 4.8 0.00 0.00 0.00 87 1014.4
20260906133531 23 31 3.2 9.7 0.00 0.00 0.00 99 1014.3
20260906132529 22 33 0.0 3.2 0.00 0.00 0.00 99 1014.2
20260906131546 22 67 1.6 4.8 0.00 0.00 0.00 99 1013.9
20260906130523 22 198 1.6 3.2 0.00 0.00 0.00 99 1013.8
20260906125520 21 233 0.0 3.2 0.00 0.00 0.00 99 1013.9
20260906124537 21 214 0.0 3.2 0.00 0.00 0.00 99 1013.8
20260906123554 20 243 0.0 3.2 0.00 0.00 0.00 99 1013.6
20260906122532 20 300 0.0 3.2 0.00 0.00 0.00 99 1013.7
20260906121529 20 115 1.6 3.2 0.00 0.00 0.00 99 1013.6
20260906120526 20 138 1.6 4.8 0.00 0.00 0.00 99 1013.5
20260906115523 20 52 0.0 3.2 0.00 0.00 0.00 99 1013.4
20260906114519 20 54 0.0 3.2 0.00 0.00 0.00 99 1013.2
20260906113517 20 291 0.0 3.2 0.00 0.00 0.00 99 1013.3
20260906112534 20 208 1.6 4.8 0.00 0.00 0.00 99 1013.1
20260906111531 20 51 1.6 4.8 0.00 0.00 0.00 99 1013.2
20260906110548 21 213 1.6 4.8 0.00 0.00 0.00 99 1013.2
20260906105524 20 359 1.6 3.2 0.00 0.00 0.00 99 1013.2
20260906104519 21 88 1.6 6.4 0.00 0.00 0.00 99 1013.1
20260906103534 21 254 1.6 4.8 0.00 0.00 0.00 99 1013.0
20260906102531 21 134 1.6 4.8 0.00 0.00 0.00 99 1013.1
20260906101528 21 198 1.6 8.0 0.00 0.00 0.00 99 1012.9
20260906100525 21 235 1.6 4.8 0.00 0.00 0.00 99 1012.9
20260906095542 21 211 1.6 4.8 0.00 0.00 0.00 99 1013.0
20260906094519 21 260 1.6 6.4 0.00 0.00 0.00 99 1012.9
20260906093516 21 306 1.6 4.8 0.00 0.00 0.00 99 1012.8
20260906092533 21 210 1.6 4.8 0.00 0.00 0.00 99 1012.7
20260906091530 21 258 1.6 6.4 0.00 0.00 0.00 98 1012.7
20260906090527 21 78 1.6 6.4 0.00 0.00 0.00 98 1012.6
20260906085522 21 260 3.2 4.8 0.00 0.00 0.00 98 1012.4
20260906084517 21 214 1.6 6.4 0.00 0.00 0.00 98 1012.5
20260906083535 21 70 0.0 1.6 0.00 0.00 0.00 98 1012.3
20260906082532 21 0.0 0.0 0.00 0.00 0.00 98 1012.3
20260906081529 21 0.0 0.0 0.00 0.00 0.00 97 1012.2
20260906080526 21 0.0 0.0 0.00 0.00 0.00 97 1012.3
20260906075523 22 0.0 1.6 0.00 0.00 0.00 97 1012.3
20260906074519 22 0.0 0.0 0.00 0.00 0.00 97 1012.3
20260906073517 22 0.0 0.0 0.00 0.00 0.00 97 1012.3
20260906072553 22 0.0 0.0 0.00 0.00 0.00 97 1012.3
20260906071531 22 0.0 0.0 0.00 0.00 0.00 97 1012.4
20260906070527 22 0.0 0.0 0.00 0.00 0.00 97 1012.4
20260906065525 22 0.0 0.0 0.00 0.00 0.00 96 1012.5
20260906064521 22 35 0.0 1.6 0.00 0.00 0.00 96 1012.7
20260906063518 22 0.0 0.0 0.00 0.00 0.00 96 1012.7
20260906062516 22 0.0 0.0 0.00 0.00 0.00 96 1012.7
20260906061532 22 0.0 0.0 0.00 0.00 0.00 96 1012.7
20260906060530 23 0.0 0.0 0.00 0.00 0.00 96 1012.7
20260906055526 23 138 0.0 1.6 0.00 0.00 0.00 96 1012.7
20260906054523 23 0.0 1.6 0.00 0.00 0.00 95 1012.8
20260906053520 23 0.0 1.6 0.00 0.00 0.00 95 1012.8
20260906052517 23 207 0.0 1.6 0.00 0.00 0.00 95 1012.9
20260906051553 23 0.0 0.0 0.00 0.00 0.00 95 1012.9
20260906050530 23 0.0 1.6 0.00 0.00 0.00 95 1012.8
20260906045528 23 41 0.0 1.6 0.00 0.00 0.00 94 1012.8
20260906044525 23 180 0.0 1.6 0.00 0.00 0.00 94 1012.8
20260906043522 23 0.0 0.0 0.00 0.00 0.00 94 1012.8
20260906042519 23 0.0 1.6 0.00 0.00 0.00 94 1012.9
20260906041516 23 0.0 0.0 0.00 0.00 0.00 94 1012.7
20260906040533 23 0.0 0.0 0.00 0.00 0.00 94 1012.6
20260906035530 23 0.0 0.0 0.00 0.00 0.00 93 1012.6
20260906034527 23 0.0 1.6 0.00 0.00 0.00 93 1012.5
20260906033524 23 167 0.0 1.6 0.00 0.00 0.00 93 1012.3
20260906032519 24 0.0 0.0 0.00 0.00 0.00 92 1012.3
20260906031516 24 0.0 0.0 0.00 0.00 0.00 92 1012.2
20260906030533 24 24 0.0 3.2 0.00 0.00 0.00 92 1012.1
20260906025530 24 155 0.0 1.6 0.00 0.00 0.00 91 1012.0
20260906024527 25 0.0 1.6 0.00 0.00 0.00 91 1011.8
20260906023524 25 8 0.0 1.6 0.00 0.00 0.00 90 1011.6
20260906022541 25 0.0 0.0 0.00 0.00 0.00 90 1011.5
20260906021518 25 0.0 0.0 0.00 0.00 0.00 90 1011.3
20260906020555 25 0.0 1.6 0.00 0.00 0.00 89 1011.3
20260906015532 25 0.0 0.0 0.00 0.00 0.00 88 1011.1
20260906014530 25 0.0 0.0 0.00 0.00 0.00 88 1011.0
20260906013526 26 0.0 1.6 0.00 0.00 0.00 87 1011.0
20260906012521 26 0.0 0.0 0.00 0.00 0.00 86 1010.8
20260906011517 26 47 0.0 3.2 0.00 0.00 0.00 85 1010.7
20260906010533 27 0.0 0.0 0.00 0.00 0.00 83 1010.6
20260906005528 27 0.0 1.6 0.00 0.00 0.00 81 1010.5
20260906004546 28 0.0 0.0 0.00 0.00 0.00 81 1010.7
20260906003522 28 8 0.0 1.6 0.00 0.00 0.00 77 1010.6
20260906002519 29 0.0 0.0 0.00 0.00 0.00 76 1010.7
20260906001516 30 0.0 0.0 0.00 0.00 0.00 73 1010.5
20260906000533 31 0.0 0.0 0.00 0.00 0.00 68 1010.6
20260905235531 31 0.0 0.0 0.00 0.00 0.00 67 1010.6
20260905234548 32 0.0 0.0 0.00 0.00 0.00 63 1010.6
20260905233524 33 0.0 0.0 0.00 0.00 0.00 53 1010.7
20260905232519 34 0.0 0.0 0.00 0.00 0.00 51 1010.6
20260905231535 36 314 0.0 1.6 0.00 0.00 0.00 44 1010.4
20260905230551 36 0.0 3.2 0.00 0.00 0.00 43 1010.4
20260905225528 36 174 0.0 3.2 0.00 0.00 0.00 40 1010.4
20260905224525 37 142 3.2 8.0 0.00 0.00 0.00 39 1010.4
20260905223542 37 221 0.0 3.2 0.00 0.00 0.00 38 1010.4
20260905222520 36 231 0.0 3.2 0.00 0.00 0.00 40 1010.5
20260905221516 36 209 3.2 6.4 0.00 0.00 0.00 41 1010.7
20260905220533 37 196 4.8 11.3 0.00 0.00 0.00 40 1010.8
20260905215530 37 252 3.2 6.4 0.00 0.00 0.00 39 1010.8
20260905214527 37 171 4.8 14.5 0.00 0.00 0.00 38 1010.8
20260905213523 37 189 1.6 6.4 0.00 0.00 0.00 38 1010.8
20260905212519 37 235 3.2 8.0 0.00 0.00 0.00 39 1011.0
20260905211555 37 236 1.6 6.4 0.00 0.00 0.00 38 1011.1
20260905210532 37 201 4.8 9.7 0.00 0.00 0.00 38 1011.2
20260905205529 37 257 4.8 6.4 0.00 0.00 0.00 39 1011.3
20260905204526 37 205 4.8 11.3 0.00 0.00 0.00 38 1011.5
20260905203523 37 168 1.6 4.8 0.00 0.00 0.00 39 1011.6
20260905202520 37 169 4.8 9.7 0.00 0.00 0.00 39 1011.9
20260905201517 36 83 3.2 8.0 0.00 0.00 0.00 41 1011.9
20260905200534 36 159 4.8 8.0 0.00 0.00 0.00 41 1012.1
20260905195530 37 268 4.8 8.0 0.00 0.00 0.00 40 1012.1
20260905194608 37 180 6.4 9.7 0.00 0.00 0.00 41 1012.4
20260905193523 36 185 6.4 14.5 0.00 0.00 0.00 41 1012.4
20260905192518 37 162 6.4 14.5 0.00 0.00 0.00 41 1012.5
20260905191533 37 197 4.8 11.3 0.00 0.00 0.00 42 1012.5
20260905190530 36 206 4.8 9.7 0.00 0.00 0.00 42 1012.5
20260905185528 36 191 3.2 9.7 0.00 0.00 0.00 42 1012.6
20260905184525 36 171 6.4 14.5 0.00 0.00 0.00 42 1012.8
20260905183520 36 210 6.4 14.5 0.00 0.00 0.00 42 1012.9